Weather History for Los Angeles, CA

Change the Weather History Date:

Saturday, October 27, 2012

  Actual Average Record
Temperature  
Mean Temperature 75 °F 65 °F  
Max Temperature 88 °F 72 °F 91 °F (1973)
Min Temperature 61 °F 57 °F 47 °F (1949)
Degree Days  
Heating Degree Days 0 2  
Month to date heating degree days 4 28  
Since 1 July heating degree days 9 37  
Cooling Degree Days 10 2  
Month to date cooling degree days 136 61  
Year to date cooling degree days 705 529  
Growing Degree Days 25 (Base 50)    
Moisture  
Dew Point 33 °F    
Average Humidity 31    
Maximum Humidity 53    
Minimum Humidity 8    
Precipitation  
Precipitation 0.00 in 0.03 in 0.71 in (2004)
Month to date precipitation 0.15 0.45  
Year to date precipitation 4.76 9.55  
Since 1 July precipitation 0.15 0.74  
Sea Level Pressure  
Sea Level Pressure 29.87 in    
Wind  
Wind Speed 6 mph (North)    
Max Wind Speed 16 mph    
Max Gust Speed 21 mph    
Visibility 10 miles    
Events      
T = Trace of Precipitation, MM = Missing Value Source: NWS Daily Summary

Daily Weather History Graph

Daily Weather History Graph

Search for Another Location

Airport:

Trip Planner

Search our weather history database for the weather conditions in past years. The results will help you decide how hot, cold, wet, or windy it might be!

Date:

Astronomy

Oct. 27, 2012 Rise Set
Actual Time 7:09 AM PDT 6:05 PM PDT
Civil Twilight 6:43 AM PDT 6:30 PM PDT
Nautical Twilight 6:14 AM PDT 7:00 PM PDT
Astronomical Twilight 5:44 AM PDT 7:29 PM PDT
Moon 4:51 PM PDT (10/27) 5:12 AM PDT (10/27)
Length of Visible Light 11h 47m
Length of Day
10h 56m
Waxing Gibbous, 96% of the Moon is Illuminated
Oct 27
Waxing Gibbous
Oct 29
Full
Nov 6
Last Quarter
Nov 13
New
Nov 20
First Quarter

Hourly Weather History & Observations

Time (PDT) Temp. Dew Point Humidity Pressure Visibility Wind Dir Wind Speed Gust Speed Precip Events Conditions
12:53 AM 68.0 °F 25.0 °F 20% 29.91 in 10.0 mi Calm Calm - N/A   Partly Cloudy
1:53 AM 68.0 °F 24.1 °F 19% 29.90 in 10.0 mi East 3.5 mph - N/A   Clear
2:53 AM 66.0 °F 26.1 °F 22% 29.89 in 10.0 mi Calm Calm - N/A   Clear
3:53 AM 62.1 °F 27.0 °F 26% 29.88 in 10.0 mi NE 5.8 mph - N/A   Clear
4:53 AM 64.9 °F 25.0 °F 22% 29.88 in 10.0 mi ENE 3.5 mph - N/A   Clear
5:53 AM 62.1 °F 26.1 °F 25% 29.88 in 10.0 mi NE 4.6 mph - N/A   Clear
6:53 AM 64.9 °F 23.0 °F 20% 29.88 in 10.0 mi ENE 4.6 mph - N/A   Clear
7:53 AM 68.0 °F 23.0 °F 18% 29.89 in 10.0 mi NE 5.8 mph - N/A   Clear
8:53 AM 73.9 °F 23.0 °F 15% 29.90 in 10.0 mi Variable 4.6 mph - N/A   Clear
9:53 AM 79.0 °F 21.0 °F 12% 29.90 in 10.0 mi Calm Calm - N/A   Clear
10:53 AM 82.9 °F 19.9 °F 10% 29.89 in 10.0 mi Calm Calm - N/A   Clear
11:53 AM 84.9 °F 17.1 °F 8% 29.88 in 10.0 mi Calm Calm - N/A   Clear
12:53 PM 82.0 °F 41.0 °F 23% 29.86 in 10.0 mi West 9.2 mph - N/A   Clear
1:53 PM 80.1 °F 28.0 °F 15% 29.84 in 10.0 mi West 9.2 mph - N/A   Clear
2:53 PM 80.1 °F 30.9 °F 17% 29.83 in 10.0 mi West 12.7 mph 20.7 mph N/A   Clear
3:53 PM 79.0 °F 30.0 °F 17% 29.82 in 10.0 mi West 10.4 mph - N/A   Clear
4:53 PM 77.0 °F 43.0 °F 30% 29.82 in 10.0 mi West 12.7 mph - N/A   Clear
5:53 PM 73.0 °F 46.0 °F 38% 29.83 in 10.0 mi West 12.7 mph - N/A   Partly Cloudy
6:53 PM 70.0 °F 48.9 °F 47% 29.84 in 10.0 mi West 11.5 mph - N/A   Partly Cloudy
7:53 PM 69.1 °F 51.1 °F 53% 29.85 in 10.0 mi West 8.1 mph - N/A   Clear
8:53 PM 69.1 °F 50.0 °F 51% 29.86 in 10.0 mi Calm Calm - N/A   Clear
9:53 PM 69.1 °F 51.1 °F 53% 29.88 in 10.0 mi SE 5.8 mph - N/A   Clear
10:53 PM 66.9 °F 48.9 °F 52% 29.90 in 10.0 mi ENE 3.5 mph - N/A   Clear
11:53 PM 66.9 °F 48.0 °F 51% 29.90 in 10.0 mi ENE 3.5 mph - N/A   Clear